Location: Córrego Montividiu
(13.2496°S, 48.8603°W)
Time: 10:59:30
(UTC+00:00)

Cosmos 1076 Rocket - Pass Details

Date: 11 March 2026
Orbit: 582 x 602 km, 82.5° (Epoch: 22 April)

Event Time Altitude Azimuth Distance (km) Brightness Sun altitude
Rises 22:06:29 0° 187° (S) 2,838 7.1 -9.2°
Reaches altitude 10° 22:08:42 10° 188° (S) 1,928 6.3 -9.7°
Maximum altitude 22:12:57 76° 274° (W) 611 3.7 -10.8°
Drops below altitude 10° 22:17:08 10° 359° (N) 1,897 6.0 -11.8°
Sets 22:19:19 0° 1° (N) 2,789 6.8 -12.3°
